Peru, IN

12:36 AM EDT on October 18, 2017 (GMT -0400)
Grissom Air Reserve Base

Weather History for KGUS - July, 2013

Change the Weather History Date:

Tuesday, July 30, 2013

  Actual Average Record
Temperature  
Mean Temperature 65 °F -  
Max Temperature 75 °F 81 °F 100 °F (1999)
Min Temperature 55 °F 64 °F 55 °F (2013)
Growing Degree Days 15 (Base 50)    
Moisture  
Dew Point 61 °F    
Average Humidity 79    
Maximum Humidity 97    
Minimum Humidity 55    
Precipitation  
Precipitation 0.04 in - - ()
Sea Level Pressure  
Sea Level Pressure 30.16 in    
Wind  
Wind Speed 3 mph (SE)    
Max Wind Speed 7 mph    
Max Gust Speed -    
Visibility 10 miles    
Events Rain    
Averages and records for this station are not official NWS values.
T = Trace of Precipitation, MM = Missing Value Source: NWS Daily Summary

Daily Weather History Graph

Daily Weather History Graph

Search for Another Location

Airport or City:

Trip Planner

Search our weather history database for the weather conditions in past years. The results will help you decide how hot, cold, wet, or windy it might be!

Date:

Astronomy

Jul. 30, 2013 Rise Set
Actual Time 6:39 AM EDT 9:01 PM EDT
Civil Twilight 6:08 AM EDT 9:32 PM EDT
Nautical Twilight 5:30 AM EDT 10:10 PM EDT
Astronomical Twilight 4:48 AM EDT 10:52 PM EDT
Moon 12:57 AM EDT (7/30) 3:21 PM EDT (7/30)
Length of Visible Light 15h 23m
Length of Day
14h 21m
Last Quarter, 41% of the Moon is Illuminated
Jul 30
Last Quarter
Aug 6
New
Aug 14
First Quarter
Aug 20
Full
Aug 28
Last Quarter

Hourly Weather History & Observations

Time (EDT) Temp. Dew Point Humidity Pressure Visibility Wind Dir Wind Speed Gust Speed Precip Events Conditions
2:58 AM 57.0 °F 55.9 °F 96% 30.19 in 10.0 mi ESE 2.3 mph - N/A   Clear
3:58 AM 56.5 °F 55.6 °F 97% 30.20 in 10.0 mi SSE 4.6 mph - N/A   Clear
4:58 AM 55.8 °F 54.9 °F 97% 30.19 in 10.0 mi SSE 4.6 mph - N/A   Clear
5:58 AM 55.4 °F 54.7 °F 97% 30.21 in 10.0 mi SE 2.3 mph - N/A   Clear
8:58 AM 65.8 °F 60.1 °F 82% 30.21 in 10.0 mi SE 3.5 mph - N/A   Clear
10:27 AM 73.4 °F 60.8 °F 65% 30.20 in 10.0 mi South 4.6 mph - N/A   Partly Cloudy
10:55 AM 73.0 °F 60.3 °F 64% 30.20 in 10.0 mi SSE 5.8 mph - N/A   Overcast
10:56 AM 73.4 °F 60.8 °F 65% 30.21 in 10.0 mi SSE 5.8 mph - N/A   Overcast
11:58 AM 75.0 °F 60.6 °F 61% 30.21 in 10.0 mi South 5.8 mph - N/A   Mostly Cloudy
12:58 PM 75.6 °F 58.1 °F 55% 30.20 in 10.0 mi Variable 4.6 mph - N/A   Mostly Cloudy
1:58 PM 75.0 °F 59.7 °F 59% 30.18 in 10.0 mi South 4.6 mph - N/A   Overcast
2:58 PM 73.8 °F 60.1 °F 62% 30.17 in 10.0 mi South 5.8 mph - N/A   Partly Cloudy
3:58 PM 73.4 °F 62.2 °F 68% 30.17 in 10.0 mi SSE 2.3 mph - N/A   Mostly Cloudy
4:58 PM 72.5 °F 63.1 °F 72% 30.16 in 10.0 mi South 3.5 mph - N/A   Overcast
5:19 PM 71.6 °F 62.6 °F 73% 30.14 in 10.0 mi SSE 2.3 mph - N/A   Light Drizzle
5:32 PM 71.6 °F 62.6 °F 73% 30.14 in 10.0 mi SSE 2.3 mph - N/A   Overcast
5:44 PM 71.6 °F 62.6 °F 73% 30.14 in 10.0 mi ESE 1.2 mph - N/A   Light Drizzle
5:58 PM 71.1 °F 63.7 °F 77% 30.14 in 10.0 mi ESE 1.2 mph - 0.00 in   Light Drizzle
6:03 PM 71.6 °F 64.4 °F 78% 30.14 in 10.0 mi SSE 2.3 mph - N/A   Overcast
6:23 PM 71.6 °F 64.4 °F 78% 30.13 in 10.0 mi Calm Calm - N/A   Light Drizzle
6:58 PM 70.3 °F 64.9 °F 83% 30.15 in 10.0 mi Calm Calm - 0.00 in   Light Drizzle
7:58 PM 68.5 °F 64.9 °F 88% 30.14 in 10.0 mi Calm Calm - 0.01 in Rain Light Rain
8:58 PM 67.3 °F 65.8 °F 95% 30.12 in 10.0 mi ESE 3.5 mph - 0.03 in   Light Drizzle
9:16 PM 66.2 °F 64.4 °F 94% 30.12 in 10.0 mi East 2.3 mph - N/A   Mostly Cloudy
9:58 PM 65.7 °F 63.9 °F 94% 30.10 in 10.0 mi SE 6.9 mph - 0.00 in   Mostly Cloudy
10:58 PM 66.2 °F 63.7 °F 92% 30.11 in 10.0 mi East 5.8 mph - N/A   Overcast
11:58 PM 65.5 °F 64.0 °F 95% 30.11 in 10.0 mi ESE 3.5 mph - N/A   Overcast